Location: Newark
(47.4417°N, 1.1394°W)
Time: 03:19:24
(UTC+00:00)

Envisat - Pass Details

Date: 19 November 2019
Orbit: 764 x 766 km, 98.1° (Epoch: 08 December)

Event Time Altitude Azimuth Distance (km) Brightness Sun altitude
Rises 18:55:56 0° 196° (SSW) 3,220 6.5 -25.3°
Reaches altitude 10° 18:58:33 10° 208° (SSW) 2,299 5.8 -25.7°
Maximum altitude 19:02:51 28° 266° (W) 1,425 5.0 -26.5°
Drops below altitude 10° 19:07:11 10° 325° (NW) 2,313 5.9 -27.2°
Sets 19:09:50 0° 337° (NNW) 3,244 6.5 -27.6°
